Retour au catalogue

COSMOS 2499 DEB

ActifPO
NORAD 60612·DEBRIS·🇷🇺 Russia

Lancé May 23, 2014 depuis Plesetsk Cosmodrome

Loading…

Prochains Passages (prochaines 24 heures)

TLE

VieillissantSource: Space-Track

Époque: Sep 10, 2026, 07:19 UTC

1 60612U 14028BY  26253.30547715  .00004207  00000-0  71623-2 0  9994
2 60612  82.1420  93.9419 0304955 298.8541  58.2293 13.28247969175140

Suivez COSMOS 2499 DEB en temps réel avec AllMySat

Download on the App Store